STARLINK-11180, 60185

Orbit data source: Space-Track

STARLINK-11180, 60185 is a payload satellite owned by SpaceX/Seattle (US) in LEO that was launched on Wed, 03 Jul 2024 UTC via an FALCON 9 launch vehicle from the Air Force Eastern Test Range (AFETR). Payloads include a variety of satellites, spacecraft, and rockets equipped with specific instruments for various scientific and technological missions. These include communications satellites like Starlink; space stations such as the ISS; scientific satellites like the Hubble; Earth observation satellites from companies like Planet Labs, Umbra, and HawkEye 360; GPS; miniature CubeSats for education and research; and military/defense satellites.

Loading next visibility...
STARLINK-11180 details
Identifier
60185, 2024-124C
Orbit
LEO
Last TLE update14 hours ago
Origin
Flag of USSpaceX/Seattle (US)
ManufacturerSpaceX/Seattle
MissionOperational spacecraft
Bus & MotorSTARLINK V2M, Unknown motor
Mass730 kg wet, ~700 kg dry
Launch date (UTC)
2024-07-03 (6 months ago)
Launch vehicle
FALCON 9
Launch site
Air Force Eastern Test Range (AFETR)
Object type
Payload
Rocket body
Debris
Shape & HBRUnknown
Radar Cross SectionLarge (>1 m²)

Expand to show TLE details & history

TLE from 14 hours ago
0 STARLINK-11180
1 60185U 24124C   24355.95843293  .00002263  00000-0  23540-4 0  9996
2 60185  53.1576 188.4997 0000922 108.9335 251.1783 15.69695524 28039
Epoch: 2024-12-20T23:00Z
Definitive object data (Epoch: 2024-12-20T23:00:08.605Z)
Latitude0.00001°
Longitude113.44737°
Altitude360.883 km
Speed7.694 km/s
True Right ascension12h 33m 59s
True Declination0° 00' 00"
Sunlit
Object was in daylight at TLE epoch
Visualization TLE readout
Latitude-0.96754°
Longitude109.90174°
Altitude361.036 km
Speed7.694 km/s
Apparent Right ascension13h 41m 20s
Apparent Declination-64° 16' 09"
Sunlit
Object is in daylight
Visualization observer readout
Local Sidereal Time11:46:50
Azimuth167.465° S
Elevation-16.604°
Doppler factor1
Orbital elements
Apogee altitude360.651 km
Perigee altitude359.408 km
Semi-major axis6,738.166 km
Eccentricity0.0000922
Inclination53.1576°
RAAN188.4997°
Arg. of periapsis108.9335°
True anomaly251.1683°
Mean anomaly251.1783°
Eccentric anomaly251.1733°
Mean motion3.92401 °/min
BSTAR0.00002354
Orbital period91.74 mins
Loading maneuver chart data...
Loading historical data...
Loading historical data...
Loading historical data...
Loading historical data...
Loading historical data...
Loading historical data...
Loading historical data...

STARLINK-11180 Visibility forecast

Observer location: undefined°, undefined

Span
Click to sort rows by Start time (UTC) header in descending order
Start Az.
Max El. time (UTC)
Max El. Az.
Max El.
End time (UTC)
End Az.
5 mins2024-12-21 15:59:59.798Z237.727° WSW2024-12-21 16:02:59.798Z13.668° NNE39.983°2024-12-21 16:04:59.798Z44.218° NE
4 mins2024-12-21 22:25:59.798Z320.87° NNW2024-12-21 22:26:59.798Z350.379° N41.37°2024-12-21 22:29:59.798Z123.35° SE
|